When you browse on this site, cookies collect data to enhance your experience and personalize the content and advertising you see.
Visit our Privacy Policy to learn more. By continuing to use the site, you agree to this use of cookies and data.
  • In United Kingdom
  • List of Countries
  • For 7 days
  • Water Temperature
  • Weather Map
  • Weather Widgets
  • user-avatar
    Login

    Hourly Weather Benguela

    Today, 25 May, Monday

    Time Temperature Precipitation Wind Pressure Humidity
    00:00 +24°C° 0 mm 1 mps 760 mmHg 84%
    01:00 +22°C° 0 mm 0 mps 760 mmHg 85%
    02:00 +24°C° 0 mm 1 mps 759 mmHg 84%
    03:00 +24°C° 0 mm 1 mps 759 mmHg 83%
    04:00 +24°C° 0 mm 1 mps 759 mmHg 83%
    05:00 +24°C° 0 mm 1 mps 759 mmHg 79%
    06:00 +24°C° 0 mm 1 mps 760 mmHg 76%
    07:00 +26°C° 0 mm 1 mps 760 mmHg 71%
    08:00 +29°C° 0 mm 1 mps 760 mmHg 58%
    09:00 +32°C° 0 mm 1 mps 760 mmHg 46%
    10:00 +35°C° 0 mm 1 mps 760 mmHg 33%
    11:00 +36°C° 0 mm 2 mps 759 mmHg 34%
    12:00 +36°C° 0 mm 3 mps 758 mmHg 36%
    13:00 +37°C° 0 mm 4 mps 758 mmHg 38%
    14:00 +36°C° 0 mm 4 mps 757 mmHg 40%
    15:00 +35°C° 0 mm 4 mps 757 mmHg 42%
    16:00 +35°C° 0 mm 4 mps 756 mmHg 44%
    17:00 +31°C° 0 mm 3 mps 757 mmHg 55%
    18:00 +28°C° 0 mm 3 mps 757 mmHg 67%
    19:00 +25°C° 0 mm 2 mps 758 mmHg 78%
    20:00 +25°C° 0 mm 2 mps 758 mmHg 78%
    21:00 +24°C° 0 mm 2 mps 758 mmHg 78%
    22:00 +24°C° 0 mm 1 mps 759 mmHg 77%
    23:00 +23°C° 0 mm 1 mps 759 mmHg 77%

    Tomorrow, 26 May, Tuesday

    Time Temperature Precipitation Wind Pressure Humidity
    00:00 +23°C° 0 mm 1 mps 759 mmHg 77%
    01:00 +23°C° 0 mm 2 mps 759 mmHg 77%
    02:00 +22°C° 0 mm 1 mps 759 mmHg 76%
    03:00 +22°C° 0 mm 1 mps 759 mmHg 75%
    04:00 +22°C° 0 mm 1 mps 759 mmHg 73%
    05:00 +21°C° 0 mm 2 mps 759 mmHg 71%
    06:00 +23°C° 0 mm 2 mps 759 mmHg 68%
    07:00 +23°C° 0 mm 2 mps 759 mmHg 65%
    08:00 +26°C° 0 mm 2 mps 760 mmHg 55%
    09:00 +30°C° 0 mm 2 mps 760 mmHg 44%
    10:00 +33°C° 0 mm 1 mps 760 mmHg 33%
    11:00 +35°C° 0 mm 2 mps 759 mmHg 33%
    12:00 +36°C° 0 mm 3 mps 759 mmHg 33%
    13:00 +36°C° 0 mm 3 mps 758 mmHg 33%
    14:00 +35°C° 0 mm 3 mps 758 mmHg 36%
    15:00 +34°C° 0 mm 3 mps 757 mmHg 40%
    16:00 +33°C° 0 mm 3 mps 757 mmHg 43%
    17:00 +30°C° 0 mm 3 mps 758 mmHg 55%
    18:00 +27°C° 0 mm 2 mps 758 mmHg 67%
    19:00 +24°C° 0 mm 2 mps 758 mmHg 79%
    20:00 +23°C° 0 mm 1 mps 759 mmHg 81%
    21:00 +23°C° 0 mm 1 mps 759 mmHg 82%
    22:00 +22°C° 0 mm 1 mps 759 mmHg 84%
    23:00 +22°C° 0 mm 1 mps 759 mmHg 83%

    Day after tomorrow, 27 May, Wednesday

    Time Temperature Precipitation Wind Pressure Humidity
    00:00 +22°C° 0 mm 1 mps 759 mmHg 82%
    01:00 +22°C° 0 mm 1 mps 759 mmHg 81%
    02:00 +21°C° 0 mm 1 mps 759 mmHg 80%
    03:00 +21°C° 0 mm 1 mps 759 mmHg 80%
    04:00 +21°C° 0 mm 1 mps 759 mmHg 79%
    05:00 +21°C° 0 mm 1 mps 759 mmHg 75%
    06:00 +22°C° 0 mm 1 mps 760 mmHg 71%
    07:00 +23°C° 0 mm 1 mps 760 mmHg 68%
    08:00 +26°C° 0 mm 1 mps 760 mmHg 57%
    09:00 +29°C° 0 mm 1 mps 760 mmHg 46%
    10:00 +32°C° 0 mm 1 mps 760 mmHg 35%
    11:00 +34°C° 0 mm 2 mps 760 mmHg 34%
    12:00 +35°C° 0 mm 2 mps 759 mmHg 33%
    13:00 +36°C° 0 mm 3 mps 759 mmHg 32%
    14:00 +35°C° 0 mm 4 mps 758 mmHg 36%
    15:00 +34°C° 0 mm 4 mps 758 mmHg 41%
    16:00 +33°C° 0 mm 4 mps 757 mmHg 45%
    17:00 +30°C° 0 mm 4 mps 758 mmHg 56%
    18:00 +27°C° 0 mm 3 mps 758 mmHg 68%
    19:00 +24°C° 0 mm 3 mps 759 mmHg 79%
    20:00 +24°C° 0 mm 2 mps 759 mmHg 80%
    21:00 +24°C° 0 mm 2 mps 760 mmHg 80%
    22:00 +23°C° 0 mm 1 mps 760 mmHg 81%
    23:00 +23°C° 0 mm 1 mps 760 mmHg 80%

    28 May, Thursday

    Time Temperature Precipitation Wind Pressure Humidity
    00:00 +23°C° 0 mm 1 mps 760 mmHg 80%
    01:00 +23°C° 0 mm 1 mps 760 mmHg 79%
    02:00 +22°C° 0 mm 1 mps 759 mmHg 77%
    03:00 +22°C° 0 mm 1 mps 759 mmHg 74%
    04:00 +22°C° 0 mm 1 mps 759 mmHg 72%
    05:00 +23°C° 0 mm 1 mps 759 mmHg 66%
    06:00 +23°C° 0 mm 1 mps 760 mmHg 60%
    07:00 +24°C° 0 mm 1 mps 760 mmHg 54%
    08:00 +28°C° 0 mm 1 mps 760 mmHg 45%
    09:00 +31°C° 0 mm 1 mps 760 mmHg 35%
    10:00 +35°C° 0 mm 1 mps 760 mmHg 26%
    11:00 +37°C° 0 mm 2 mps 759 mmHg 26%
    12:00 +37°C° 0 mm 3 mps 759 mmHg 27%
    13:00 +38°C° 0 mm 4 mps 758 mmHg 28%
    14:00 +37°C° 0 mm 4 mps 758 mmHg 31%
    15:00 +36°C° 0 mm 4 mps 757 mmHg 35%
    16:00 +35°C° 0 mm 4 mps 757 mmHg 38%
    17:00 +31°C° 0 mm 3 mps 757 mmHg 51%
    18:00 +28°C° 0 mm 3 mps 758 mmHg 64%
    19:00 +25°C° 0 mm 2 mps 758 mmHg 77%
    20:00 +25°C° 0 mm 2 mps 759 mmHg 79%
    21:00 +25°C° 0 mm 1 mps 759 mmHg 80%
    22:00 +24°C° 0 mm 1 mps 759 mmHg 82%
    23:00 +24°C° 0 mm 1 mps 759 mmHg 80%

    29 May, Friday

    Time Temperature Precipitation Wind Pressure Humidity
    00:00 +24°C° 0 mm 1 mps 759 mmHg 79%
    01:00 +24°C° 0 mm 1 mps 758 mmHg 77%
    02:00 +24°C° 0 mm 1 mps 758 mmHg 73%
    03:00 +23°C° 0 mm 2 mps 758 mmHg 69%
    04:00 +23°C° 0 mm 2 mps 758 mmHg 65%
    05:00 +24°C° 0 mm 2 mps 758 mmHg 60%
    06:00 +24°C° 0 mm 2 mps 759 mmHg 56%
    07:00 +25°C° 0 mm 2 mps 759 mmHg 52%
    08:00 +28°C° 0 mm 2 mps 759 mmHg 44%
    09:00 +31°C° 0 mm 2 mps 759 mmHg 36%
    10:00 +35°C° 0 mm 2 mps 759 mmHg 28%
    11:00 +36°C° 0 mm 2 mps 758 mmHg 32%
    12:00 +36°C° 0 mm 3 mps 758 mmHg 35%
    13:00 +36°C° 0 mm 3 mps 757 mmHg 39%
    14:00 +36°C° 0 mm 3 mps 756 mmHg 41%
    15:00 +35°C° 0 mm 3 mps 756 mmHg 44%
    16:00 +34°C° 0 mm 2 mps 756 mmHg 46%
    17:00 +31°C° 0 mm 2 mps 756 mmHg 56%
    18:00 +28°C° 0 mm 1 mps 757 mmHg 67%
    19:00 +26°C° 0 mm 1 mps 757 mmHg 77%
    20:00 +26°C° 0 mm 1 mps 757 mmHg 75%
    21:00 +26°C° 0 mm 1 mps 758 mmHg 73%
    22:00 +26°C° 0 mm 1 mps 758 mmHg 71%
    23:00 +25°C° 0 mm 1 mps 758 mmHg 73%

    30 May, Saturday

    Time Temperature Precipitation Wind Pressure Humidity
    00:00 +25°C° 0 mm 1 mps 758 mmHg 74%
    01:00 +24°C° 0 mm 2 mps 758 mmHg 76%
    02:00 +24°C° 0 mm 2 mps 757 mmHg 76%
    03:00 +24°C° 0 mm 1 mps 757 mmHg 77%
    04:00 +24°C° 0 mm 1 mps 757 mmHg 78%
    05:00 +24°C° 0 mm 2 mps 758 mmHg 73%
    06:00 +25°C° 0 mm 2 mps 758 mmHg 69%
    07:00 +25°C° 0 mm 3 mps 758 mmHg 65%
    08:00 +28°C° 0 mm 3 mps 759 mmHg 56%
    09:00 +31°C° 0 mm 3 mps 759 mmHg 46%
    10:00 +35°C° 0 mm 3 mps 759 mmHg 37%
    11:00 +35°C° 0 mm 3 mps 758 mmHg 41%
    12:00 +36°C° 0 mm 4 mps 757 mmHg 44%
    13:00 +36°C° 0 mm 4 mps 757 mmHg 47%
    14:00 +35°C° 0 mm 3 mps 757 mmHg 50%
    15:00 +34°C° 0 mm 3 mps 756 mmHg 53%
    16:00 +32°C° 0 mm 2 mps 756 mmHg 56%
    17:00 +30°C° 0 mm 2 mps 757 mmHg 67%
    18:00 +28°C° 0 mm 1 mps 757 mmHg 78%
    19:00 +25°C° 0 mm 1 mps 758 mmHg 88%
    20:00 +25°C° 0 mm 1 mps 758 mmHg 87%
    21:00 +25°C° 0 mm 1 mps 758 mmHg 86%
    22:00 +25°C° 0 mm 1 mps 759 mmHg 85%
    23:00 +25°C° 0 mm 1 mps 758 mmHg 84%
    Show more